{"data":{"norad_id":44941,"intl_designator":"2020-001AD","name":"STARLINK-1094","alt_names":[],"object_type":"PAYLOAD","status":"ACTIVE","operator":null,"country":"US","launch_date":"2020-01-07","launch_site_code":"AFETR","launch_vehicle":null,"mission":null,"orbit_class":"UNKNOWN","rcs_meters":null,"size_class":null,"mass_kg":null,"dimensions":null,"purposes":["comms"],"wikipedia_slug":null,"has_3d_model":false,"image_url":null,"decayed_at":null,"tle_current":{"epoch":"2026-09-20T03:34:28.807392Z","epoch_age_seconds":44584,"freshness":"FRESH","line1":"1 44941U 20001AD  26263.14894453  .00035307  00000+0  33060-3 0  9994","line2":"2 44941  53.1450 105.6454 0003016  79.8518 280.2838 15.66913822370436","mean_motion":15.66913822,"eccentricity":0.0003016,"inclination_deg":53.145,"raan_deg":105.6454,"arg_perigee_deg":79.8518,"mean_anomaly_deg":280.2838,"bstar":0.0003306,"rev_number":37043,"period_min":91.900395527942,"perigee_km":365.70568172182,"apogee_km":369.77479487196,"semimajor_km":6745.8772382969,"source":"CELESTRAK","updated_at":"2026-09-20T09:00:38.221393Z"}}}